SCP
0 0 0 -0 -0 -0 -0 -0 -0 -0 -0 -0 -0 -0 -0 -0 -0 -0 0 0 0 0 0 0 0 -0 -0 0 0 0 -0 -0 0 0 0 0 0 0 0 0 0 0 0 0 0 0 0
0 0 0 0 0 0 -0 -0 -0 -0 -0 -0 -0 -0 -0 -0 -0 0 -0 -0 -0 -0 -0 -0 -0 -0 -0 0 0 -0 -0 0 0 0 0 0 0 0 0 0 0 0 0 0 0 0 0
0 0 0 0 0 0 0 -0 -0 -0 -0 -0 -0 -0 -0 -0 -0 -0 -0 -0 -0 -0 -0 -0 -0 -0 -0 0 -0 -0 -0 0 0 0 0 0 0 0 0 0 0 0 0 0 0 0 0
0 0 0 0 0 0 0 0 -0 -0 -0 -0 -0 -0 -0 -0 -0 -0 0 -0 -0 -0 -0 -0 -0 -0 0 0 -0 0 -0 0 0 0 0 0 0 0 0 0 0 0 0 0 0 0 0
0 0 0 -0 -0 0 0 0 0 -0 -0 -0 -0 -0 -0 -0 -0 -0 -0 -0 -0 -0 0 -0 -0 -0 0 0 0 0 0 0 0 -0 0 0 0 0 0 0 0 0 0 0 0 0 0
-0 -0 -0 -0 0 0 0 0 -0 -0 -0 -0 -0 -0 -0 -0 -0 -0 -0 -0 0 0 0 0 -0 -0 0 0 0 -0 -0 -0 -0 0 -0 -0 0 0 0 0 0 0 0 0 0 0 0
-0 -0 0 0 0 0 0 -0 -0 -0 -0 -0 -0 -0 -0 -0 -0 -0 -0 0 0 -0 -0 0 0 0 0 0 0 0 0 -0 -0 -0 -0 0 0 0 0 0 0 0 0 0 0 0 0
-0 -0 -0 0 0 0 0 0 -0 -0 -0 -0 -0 -0 -0 -0 0 -0 -0 0 0 0 0 0 0 -0 0 0 0 0 0 -0 -0 -0 0 0 0 0 -0 0 0 0 0 0 0 0 0
-0 -0 -0 -0 0 0 0 0 0 -0 -0 -0 -0 -0 -0 0 0 0 0 0 0 0 0 0 -0 0 0 0 -0 -0 0 -0 -0 -0 -0 0 0 0 0 0 0 0 0 0 0 0 0
0 -0 -0 -0 -0 -0 0 -0 -0 -0 -0 -0 -0 -0 -0 0 -0 0 0 0 0 0 0 0 0 0 0 0 -0 0 0 0 -0 -0 0 0 0 0 0 0 0 0 0 0 0 0 0
0 0 0 -0 -0 0 0 0 0 -0 -0 -0 -0 -0 0 0 0 0 0 0 0 0 0 0 0 0 0 0 0 0 0 -0 -0 -0 0 0 0 0 0 0 0 0 0 0 0 0 0
0 0 0 0 0 0 0 0 0 0 -0 -0 -0 -0 0 0 0 0 0 0 0 0 0 0 0 0 0 0 0 0 0 0 0 -0 -0 -0 0 0 0 0 0 0 0 0 0 0 0
0 0 0 0 0 0 0 0 0 0 -0 -0 -0 -0 0 0 0 0 0 0 0 -0 0 0 0 0 0 0 0 0 0 -0 0 0 0 0 0 0 -0 0 0 0 -0 0 0 0 0
0 0 0 0 0 0 0 0 0 0 -0 -0 -0 -0 0 0 0 0 0 0 -0 0 0 0 0 0 0 0 0 0 0 0 0 0 0 0 -0 0 0 0 0 -0 0 0 0 0 0
0 0 0 0 0 0 0 0 0 -0 -0 -0 -0 0 0 0 0 0 0 -0 0 0 0 0 0 0 0 0 0 0 0 0 0 0 0 0 0 0 -0 0 0 0 0 0 0 0 0
0 0 0 0 0 0 0 0 0 0 -0 -0 0 0 0 0 0 0 0 0 0 0 0 0 0 0 0 -0 0 -0 0 0 0 0 0 0 0 -0 -0 -0 -0 0 0 0 -0 0 0
0 0 0 0 0 0 0 0 0 0 0 -0 0 0 0 0 0 0 0 0 0 0 0 0 0 0 -0 -0 0 -0 0 0 0 0 0 0 0 -0 -0 -0 -0 0 -0 0 0 0 0
-0 -0 0 0 0 0 0 0 0 0 0 0 0 0 0 0 0 0 0 0 0 0 0 0 0 0 0 -0 0 0 0 0 0 0 -0 -0 -0 -0 -0 -0 0 -0 0 0 0 0 0
0 0 0 0 0 0 0 0 0 0 0 0 0 0 0 0 0 0 0 0 0 0 0 0 0 0 -0 0 0 0 0 -0 -0 -0 0 0 0 -0 -0 -0 0 0 -0 0 -0 0 -0
0 0 0 0 0 0 0 0 0 0 0 0 0 0 0 0 0 0 0 0 0 0 0 0 0 0 0 0 -0 0 0 0 -0 0 0 0 -0 -0 -0 -0 0 -0 -0 0 -0 -0 0
0 0 0 0 0 0 0 0 0 0 0 0 0 0 0 0 0 0 0 0 0 0 0 0 0 0 0 0 0 -0 0 -0 -0 -0 -0 0 -0 -0 -0 -0 -0 0 0 -0 -0 0 -0
0 0 0 0 0 0 0 0 0 0 0 0 0 0 0 0 0 0 0 0 0 0 0 -0 0 0 -0 0 -0 -0 -0 -0 0 -0 0 -0 -0 0 -0 -0 -0 -0 0 -0 -0 -0 0
0 0 0 0 0 0 0 0 0 0 0 0 0 0 0 0 0 0 0 0 0 0 0 0 0 0 -0 -0 -0 -0 -0 -0 -0 0 0 0 0 -0 0 -0 -0 0 -0 -0 -0 0 0
0 0 0 0 0 0 0 0 0 0 0 0 0 0 0 0 0 0 0 0 0 0 -0 0 0 -0 -0 0 -0 -0 -0 -0 0 0 0 0 0 0 0 0 0 -0 0 0 0 0 0
0 0 0 0 0 0 0 0 0 0 0 0 0 0 0 0 0 0 0 0 0 0 0 -0 -0 0 -0 -0 -0 -0 0 0 0 0 0 0 0 0 0 0 0 -0 0 0 0 0 0
0 0 0 0 0 0 0 0 0 0 0 0 0 0 0 0 0 0 0 0 0 0 0 0 0 -0 0 0 0 -0 -0 -0 -0 0 0 0 0 0 0 0 0 0 0 0 0 -0 0
0 0 0 0 0 0 0 0 0 0 0 0 0 0 0 0 0 0 0 0 0 0 0 0 0 0 0 0 0 -0 -0 -0 -0 -0 0 0 0 0 0 0 0 0 0 0 0 0 -0
0 0 0 0 0 0 0 0 0 0 0 0 0 0 0 0 0 0 0 0 0 0 0 0 0 0 0 0 0 0 0 -0 -0 -0 0 0 0 0 0 0 0 0 -0 0 0 -0 -0
0 0 0 0 0 0 0 0 0 0 0 0 0 0 0 0 0 0 0 0 0 0 0 0 0 0 0 0 0 0 0 -0 -0 -0 0 0 0 0 0 0 -0 -0 0 0 -0 -0 -0
Wind_Speed_500mb
31 32 33 32 32 32 32 33 34 34 33 32 30 28 28 27 23 22 21 22 24 24 22 22 26 21 7 7 14 11 22 26 19 12 15 22 31 36 49 52 60 65 62 74 75 68 62
34 34 34 34 34 35 36 36 37 37 36 34 30 28 26 23 22 20 20 24 27 28 27 22 21 7 11 7 8 15 19 20 15 17 16 17 26 34 50 52 54 68 68 76 76 74 72
35 35 34 35 36 37 37 36 35 38 38 37 35 30 27 25 21 18 20 27 33 33 27 17 14 6 9 11 10 15 18 19 16 16 18 18 22 34 27 34 63 65 60 56 58 71 68
38 38 38 38 39 40 38 37 36 38 39 38 37 36 32 28 24 22 25 30 30 24 12 14 6 1 10 2 11 16 18 19 13 22 23 24 25 37 48 52 60 45 44 53 68 58 63
37 38 39 40 42 44 44 43 41 41 42 41 39 36 33 28 25 24 29 34 25 20 13 5 11 7 6 9 17 25 19 20 25 24 21 26 28 35 34 34 38 43 50 60 62 60 58
38 39 40 41 42 43 45 45 45 45 45 44 43 39 34 29 23 20 29 23 24 13 17 8 11 13 10 13 24 25 16 23 28 29 31 32 33 26 27 26 40 46 55 58 61 56 55
40 41 43 44 45 47 46 45 46 47 48 47 45 42 36 30 22 20 30 22 10 9 13 24 21 19 16 20 21 19 13 23 21 25 28 22 28 27 34 32 40 47 54 66 60 50 57
39 41 44 46 47 48 50 52 51 49 49 52 51 45 37 28 19 15 18 16 10 13 21 26 21 19 16 16 19 21 13 30 21 28 33 29 31 31 35 31 36 45 51 58 56 60 52
39 42 45 47 47 49 51 53 54 55 54 55 54 49 36 22 13 8 9 7 10 18 16 0 15 16 14 13 26 31 20 26 26 33 31 31 39 36 34 33 37 38 42 47 56 50 53
37 43 47 48 50 53 56 58 54 53 53 55 55 48 32 9 5 7 2 13 19 13 11 17 13 6 12 19 34 12 20 17 29 35 35 33 37 42 33 38 38 41 41 45 44 47 43
39 42 46 47 51 54 55 62 60 55 51 50 52 39 21 1 3 10 11 18 16 4 9 9 7 5 14 19 24 5 12 30 33 38 33 38 39 39 40 42 39 44 39 44 48 47 52
40 44 46 47 48 52 55 59 63 61 55 46 46 27 10 9 4 8 15 17 4 13 3 6 4 11 20 27 14 21 26 31 41 36 34 39 33 39 31 45 38 44 41 52 49 43 42
42 46 50 52 52 49 52 56 62 64 63 49 42 16 3 4 7 14 14 12 13 11 10 3 16 22 28 22 22 9 26 25 19 24 29 38 31 9 30 27 30 33 45 30 35 35 41
45 48 51 53 55 56 53 56 58 65 68 53 35 8 7 5 10 15 11 19 19 11 17 20 21 33 30 13 16 15 27 27 18 14 24 25 33 4 12 24 30 51 41 32 38 33 40
47 50 52 54 56 57 57 56 65 63 68 61 18 5 5 7 10 15 24 16 5 17 15 20 30 21 17 13 19 25 22 25 10 20 19 25 26 41 46 14 16 29 38 44 41 52 35
50 53 56 58 56 55 54 58 66 64 63 58 20 9 7 10 12 13 18 17 14 7 17 19 27 12 26 31 26 25 25 14 16 19 19 26 42 38 39 20 36 36 29 25 29 41 39
56 54 55 57 53 50 53 60 67 63 59 49 15 13 2 9 12 19 7 13 15 13 18 14 23 31 30 28 27 33 31 30 12 32 29 36 20 39 38 27 30 16 35 24 28 16 18
52 51 54 54 50 51 54 59 58 62 64 49 15 8 5 12 13 8 12 12 11 14 10 14 17 22 21 24 30 33 36 21 36 27 35 32 15 29 41 45 12 26 32 19 24 29 35
49 50 50 49 48 53 56 54 53 54 58 51 24 15 6 7 5 12 16 21 6 16 15 11 15 24 26 28 19 21 33 32 36 29 12 17 11 23 29 7 21 20 36 17 14 25 37
48 45 49 51 54 55 54 54 50 47 48 36 15 8 3 4 4 13 20 17 13 3 20 16 18 30 22 27 28 20 34 21 30 38 38 26 27 29 30 42 11 15 33 27 23 12 41
43 44 51 51 54 56 56 53 50 46 42 18 13 6 7 8 14 23 23 22 22 20 6 20 13 10 20 23 38 37 25 44 43 42 27 10 28 36 43 47 39 37 34 31 34 38 40
44 45 49 49 55 61 59 54 44 42 34 16 16 14 17 32 18 19 12 13 17 18 22 31 30 26 30 27 31 50 44 39 22 27 15 22 29 32 40 42 42 44 39 37 39 42 49
43 49 50 51 55 56 54 52 40 37 27 8 10 8 12 21 13 16 12 13 21 31 22 19 16 30 36 36 40 50 63 61 37 24 32 18 23 26 27 20 32 31 33 33 31 36 35
44 49 51 53 52 53 48 42 36 26 19 10 6 13 9 13 20 18 20 26 24 26 32 50 45 35 39 43 58 60 62 49 36 19 16 8 13 6 20 22 14 24 8 14 26 32 32
48 50 53 52 51 48 43 37 30 21 16 8 11 10 6 14 33 34 17 15 30 37 34 41 41 29 34 42 24 25 8 3 19 27 25 22 2 8 8 16 30 37 11 10 15 33 34
47 52 50 53 49 45 42 36 28 23 21 12 18 19 15 13 4 32 40 38 21 23 31 19 26 31 26 15 12 19 11 14 9 10 19 13 4 5 16 11 8 5 16 18 18 26 20
48 51 54 52 49 43 39 35 30 27 21 18 20 20 20 27 36 15 17 23 23 20 15 32 20 15 7 6 8 8 12 14 9 16 13 16 7 11 19 14 9 11 32 22 9 8 42
50 52 54 51 49 44 38 36 32 29 24 17 21 23 28 37 59 59 47 40 35 28 16 23 21 6 17 6 5 7 8 9 12 22 16 10 10 10 10 11 7 36 25 5 25 54 49
51 54 53 49 46 43 40 38 34 29 24 20 26 19 28 39 50 62 68 64 64 49 43 13 13 20 11 5 7 9 8 7 21 9 13 8 7 7 7 9 32 38 30 30 44 39 42
Wind_Direction_500mb
23 21 18 17 16 13 13 11 8 1 354 349 344 344 344 345 346 345 342 339 341 343 348 352 352 345 56 217 49 327 347 341 348 324 288 262 257 250 247 246 246 240 248 249 250 251 254
23 23 21 17 12 8 6 6 4 3 359 352 345 341 340 342 339 341 334 331 329 328 333 345 3 4 346 247 352 340 332 337 322 313 303 281 266 261 271 263 250 255 252 251 253 253 249
25 21 18 14 9 4 360 358 1 1 1 356 348 341 336 334 335 339 337 329 324 319 322 342 2 133 295 56 339 331 337 328 317 307 292 289 286 263 268 256 252 262 265 267 261 245 248
23 19 17 15 12 7 3 359 1 359 358 356 352 346 337 332 331 332 337 333 328 326 332 343 9 6 284 5 358 346 327 323 315 310 286 283 283 274 263 262 274 280 261 250 245 247 248
25 21 18 16 13 10 8 3 359 356 355 353 352 346 339 328 322 330 339 339 342 343 349 29 34 274 171 315 346 333 326 319 313 307 290 279 279 276 265 248 254 247 250 245 253 242 240
20 18 17 15 12 10 7 5 2 358 353 349 349 344 339 329 319 331 341 349 336 345 359 325 271 248 219 335 327 324 320 317 308 306 294 252 267 253 243 237 248 253 245 248 255 257 234
17 15 12 9 7 5 3 3 1 358 353 348 346 342 334 328 316 332 351 320 306 218 255 291 306 284 296 313 318 326 308 314 296 286 275 287 270 255 278 280 272 274 273 277 274 264 244
16 13 8 4 1 359 357 356 357 356 353 349 344 340 332 321 312 329 15 5 11 326 300 278 253 259 279 300 303 323 294 310 303 297 300 277 252 257 260 275 289 283 278 271 271 268 273
13 11 9 8 6 4 359 354 351 351 352 348 344 340 335 321 316 353 332 351 331 322 266 232 221 255 274 271 296 297 297 298 290 298 292 291 291 298 287 265 261 269 268 275 279 285 267
9 8 7 5 4 5 3 357 351 348 347 347 343 341 341 356 53 326 241 332 331 305 270 132 201 197 257 292 272 286 286 283 288 292 296 291 289 282 281 272 268 271 273 277 270 264 260
2 1 3 4 2 0 1 1 357 350 348 345 342 343 349 247 315 322 311 323 311 267 262 119 152 1 270 270 300 151 264 280 282 294 287 290 290 280 266 279 284 282 286 282 275 264 256
354 353 352 354 355 358 358 359 2 357 350 347 342 341 6 37 352 311 330 320 313 234 45 173 269 270 297 303 280 272 281 280 268 260 274 278 337 285 281 305 288 292 284 275 267 259 249
345 346 349 350 351 350 351 352 355 358 354 348 342 330 255 146 324 315 313 288 244 294 123 46 329 314 310 293 307 301 310 299 303 310 310 314 285 263 272 310 284 268 264 262 251 242 251
341 342 343 344 344 346 348 347 349 352 354 349 344 313 251 241 310 318 308 255 271 345 324 352 318 302 270 352 312 285 293 297 327 310 309 306 309 21 306 288 310 291 262 257 257 258 251
343 344 345 344 342 341 345 347 347 346 350 349 6 356 242 260 305 318 279 271 292 348 355 326 311 306 326 307 315 305 303 306 323 319 305 304 295 311 301 297 295 309 245 251 261 264 273
354 349 347 346 347 346 347 349 350 346 349 349 342 279 198 303 291 299 261 285 294 4 311 310 300 312 320 320 331 317 315 330 307 326 318 306 295 297 285 262 260 235 259 256 248 256 274
346 346 348 349 349 354 354 351 348 347 350 354 355 276 65 334 292 247 273 297 329 338 314 311 321 306 306 320 307 308 305 314 347 331 326 313 291 288 295 260 276 243 233 223 273 277 264
347 346 347 347 351 349 349 352 353 352 350 3 348 275 350 349 266 278 266 1 322 281 272 272 291 301 294 320 309 298 299 321 326 326 309 308 291 287 286 289 217 238 257 236 243 247 255
350 347 348 351 348 343 346 349 352 354 357 347 328 295 344 6 309 327 313 301 253 294 308 301 280 299 300 292 296 287 305 311 310 311 325 341 293 308 290 43 12 337 308 242 290 288 266
349 353 352 348 347 344 345 347 346 349 353 350 324 320 345 353 343 312 330 308 292 232 287 285 282 285 301 295 282 281 292 317 317 308 298 279 271 261 275 293 181 222 253 286 238 253 267
344 346 345 349 349 346 342 341 339 341 359 352 334 3 339 313 328 323 296 295 288 296 288 299 290 269 287 304 311 288 306 313 308 297 283 239 264 274 279 285 293 289 279 258 255 264 272
339 339 343 345 347 345 343 342 340 340 359 350 343 338 331 292 291 284 289 286 310 301 320 301 286 308 307 280 274 286 295 294 300 302 294 294 274 274 283 290 287 281 272 253 257 266 270
339 334 336 338 340 341 341 344 348 349 359 3 334 314 327 294 282 284 284 315 319 327 300 283 298 282 291 296 296 281 280 284 274 254 285 286 280 283 266 313 319 293 266 270 274 261 275
329 334 333 334 338 339 338 345 353 350 355 338 341 330 302 294 327 304 297 297 293 293 281 294 297 284 299 304 300 289 265 249 237 209 202 227 276 259 275 282 248 291 59 342 313 296 285
332 334 333 334 336 337 335 333 337 339 328 332 310 280 288 289 319 293 275 267 300 285 285 284 284 296 310 303 293 291 306 260 243 234 209 216 190 279 270 248 273 289 38 17 345 294 292
333 334 335 334 335 335 335 333 327 319 305 309 293 280 253 294 239 335 312 301 297 302 290 283 321 304 294 293 285 283 309 347 318 300 194 215 161 212 312 296 290 101 43 347 329 271 19
332 332 331 331 331 332 330 329 327 318 303 280 294 281 261 274 281 292 299 312 301 285 278 295 333 314 256 295 282 295 314 353 307 330 299 309 230 230 275 277 246 41 348 330 233 358 326
330 331 330 327 329 330 329 326 323 317 304 297 282 267 260 273 279 279 279 278 266 251 258 312 314 229 276 251 295 346 310 316 309 306 290 287 315 305 306 292 336 350 345 222 319 304 305
327 330 329 327 328 328 327 324 322 316 305 281 287 276 269 261 265 283 282 271 255 249 258 243 278 313 286 315 3 322 300 286 292 278 317 315 326 274 241 288 312 310 302 315 302 286 298
Wind_Speed_850mb
31 32 33 32 32 32 32 33 34 34 33 32 30 28 28 27 23 22 21 22 24 24 22 22 26 21 7 7 14 11 22 26 19 12 15 22 31 36 49 52 60 65 62 74 75 68 62
34 34 34 34 34 35 36 36 37 37 36 34 30 28 26 23 22 20 20 24 27 28 27 22 21 7 11 7 8 15 19 20 15 17 16 17 26 34 50 52 54 68 68 76 76 74 72
35 35 34 35 36 37 37 36 35 38 38 37 35 30 27 25 21 18 20 27 33 33 27 17 14 6 9 11 10 15 18 19 16 16 18 18 22 34 27 34 63 65 60 56 58 71 68
38 38 38 38 39 40 38 37 36 38 39 38 37 36 32 28 24 22 25 30 30 24 12 14 6 1 10 2 11 16 18 19 13 22 23 24 25 37 48 52 60 45 44 53 68 58 63
37 38 39 40 42 44 44 43 41 41 42 41 39 36 33 28 25 24 29 34 25 20 13 5 11 7 6 9 17 25 19 20 25 24 21 26 28 35 34 34 38 43 50 60 62 60 58
38 39 40 41 42 43 45 45 45 45 45 44 43 39 34 29 23 20 29 23 24 13 17 8 11 13 10 13 24 25 16 23 28 29 31 32 33 26 27 26 40 46 55 58 61 56 55
40 41 43 44 45 47 46 45 46 47 48 47 45 42 36 30 22 20 30 22 10 9 13 24 21 19 16 20 21 19 13 23 21 25 28 22 28 27 34 32 40 47 54 66 60 50 57
39 41 44 46 47 48 50 52 51 49 49 52 51 45 37 28 19 15 18 16 10 13 21 26 21 19 16 16 19 21 13 30 21 28 33 29 31 31 35 31 36 45 51 58 56 60 52
39 42 45 47 47 49 51 53 54 55 54 55 54 49 36 22 13 8 9 7 10 18 16 0 15 16 14 13 26 31 20 26 26 33 31 31 39 36 34 33 37 38 42 47 56 50 53
37 43 47 48 50 53 56 58 54 53 53 55 55 48 32 9 5 7 2 13 19 13 11 17 13 6 12 19 34 12 20 17 29 35 35 33 37 42 33 38 38 41 41 45 44 47 43
39 42 46 47 51 54 55 62 60 55 51 50 52 39 21 1 3 10 11 18 16 4 9 9 7 5 14 19 24 5 12 30 33 38 33 38 39 39 40 42 39 44 39 44 48 47 52
40 44 46 47 48 52 55 59 63 61 55 46 46 27 10 9 4 8 15 17 4 13 3 6 4 11 20 27 14 21 26 31 41 36 34 39 33 39 31 45 38 44 41 52 49 43 42
42 46 50 52 52 49 52 56 62 64 63 49 42 16 3 4 7 14 14 12 13 11 10 3 16 22 28 22 22 9 26 25 19 24 29 38 31 9 30 27 30 33 45 30 35 35 41
45 48 51 53 55 56 53 56 58 65 68 53 35 8 7 5 10 15 11 19 19 11 17 20 21 33 30 13 16 15 27 27 18 14 24 25 33 4 12 24 30 51 41 32 38 33 40
47 50 52 54 56 57 57 56 65 63 68 61 18 5 5 7 10 15 24 16 5 17 15 20 30 21 17 13 19 25 22 25 10 20 19 25 26 41 46 14 16 29 38 44 41 52 35
50 53 56 58 56 55 54 58 66 64 63 58 20 9 7 10 12 13 18 17 14 7 17 19 27 12 26 31 26 25 25 14 16 19 19 26 42 38 39 20 36 36 29 25 29 41 39
56 54 55 57 53 50 53 60 67 63 59 49 15 13 2 9 12 19 7 13 15 13 18 14 23 31 30 28 27 33 31 30 12 32 29 36 20 39 38 27 30 16 35 24 28 16 18
52 51 54 54 50 51 54 59 58 62 64 49 15 8 5 12 13 8 12 12 11 14 10 14 17 22 21 24 30 33 36 21 36 27 35 32 15 29 41 45 12 26 32 19 24 29 35
49 50 50 49 48 53 56 54 53 54 58 51 24 15 6 7 5 12 16 21 6 16 15 11 15 24 26 28 19 21 33 32 36 29 12 17 11 23 29 7 21 20 36 17 14 25 37
48 45 49 51 54 55 54 54 50 47 48 36 15 8 3 4 4 13 20 17 13 3 20 16 18 30 22 27 28 20 34 21 30 38 38 26 27 29 30 42 11 15 33 27 23 12 41
43 44 51 51 54 56 56 53 50 46 42 18 13 6 7 8 14 23 23 22 22 20 6 20 13 10 20 23 38 37 25 44 43 42 27 10 28 36 43 47 39 37 34 31 34 38 40
44 45 49 49 55 61 59 54 44 42 34 16 16 14 17 32 18 19 12 13 17 18 22 31 30 26 30 27 31 50 44 39 22 27 15 22 29 32 40 42 42 44 39 37 39 42 49
43 49 50 51 55 56 54 52 40 37 27 8 10 8 12 21 13 16 12 13 21 31 22 19 16 30 36 36 40 50 63 61 37 24 32 18 23 26 27 20 32 31 33 33 31 36 35
44 49 51 53 52 53 48 42 36 26 19 10 6 13 9 13 20 18 20 26 24 26 32 50 45 35 39 43 58 60 62 49 36 19 16 8 13 6 20 22 14 24 8 14 26 32 32
48 50 53 52 51 48 43 37 30 21 16 8 11 10 6 14 33 34 17 15 30 37 34 41 41 29 34 42 24 25 8 3 19 27 25 22 2 8 8 16 30 37 11 10 15 33 34
47 52 50 53 49 45 42 36 28 23 21 12 18 19 15 13 4 32 40 38 21 23 31 19 26 31 26 15 12 19 11 14 9 10 19 13 4 5 16 11 8 5 16 18 18 26 20
48 51 54 52 49 43 39 35 30 27 21 18 20 20 20 27 36 15 17 23 23 20 15 32 20 15 7 6 8 8 12 14 9 16 13 16 7 11 19 14 9 11 32 22 9 8 42
50 52 54 51 49 44 38 36 32 29 24 17 21 23 28 37 59 59 47 40 35 28 16 23 21 6 17 6 5 7 8 9 12 22 16 10 10 10 10 11 7 36 25 5 25 54 49
51 54 53 49 46 43 40 38 34 29 24 20 26 19 28 39 50 62 68 64 64 49 43 13 13 20 11 5 7 9 8 7 21 9 13 8 7 7 7 9 32 38 30 30 44 39 42
Wind_Direction_850mb
23 21 18 17 16 13 13 11 8 1 354 349 344 344 344 345 346 345 342 339 341 343 348 352 352 345 56 217 49 327 347 341 348 324 288 262 257 250 247 246 246 240 248 249 250 251 254
23 23 21 17 12 8 6 6 4 3 359 352 345 341 340 342 339 341 334 331 329 328 333 345 3 4 346 247 352 340 332 337 322 313 303 281 266 261 271 263 250 255 252 251 253 253 249
25 21 18 14 9 4 360 358 1 1 1 356 348 341 336 334 335 339 337 329 324 319 322 342 2 133 295 56 339 331 337 328 317 307 292 289 286 263 268 256 252 262 265 267 261 245 248
23 19 17 15 12 7 3 359 1 359 358 356 352 346 337 332 331 332 337 333 328 326 332 343 9 6 284 5 358 346 327 323 315 310 286 283 283 274 263 262 274 280 261 250 245 247 248
25 21 18 16 13 10 8 3 359 356 355 353 352 346 339 328 322 330 339 339 342 343 349 29 34 274 171 315 346 333 326 319 313 307 290 279 279 276 265 248 254 247 250 245 253 242 240
20 18 17 15 12 10 7 5 2 358 353 349 349 344 339 329 319 331 341 349 336 345 359 325 271 248 219 335 327 324 320 317 308 306 294 252 267 253 243 237 248 253 245 248 255 257 234
17 15 12 9 7 5 3 3 1 358 353 348 346 342 334 328 316 332 351 320 306 218 255 291 306 284 296 313 318 326 308 314 296 286 275 287 270 255 278 280 272 274 273 277 274 264 244
16 13 8 4 1 359 357 356 357 356 353 349 344 340 332 321 312 329 15 5 11 326 300 278 253 259 279 300 303 323 294 310 303 297 300 277 252 257 260 275 289 283 278 271 271 268 273
13 11 9 8 6 4 359 354 351 351 352 348 344 340 335 321 316 353 332 351 331 322 266 232 221 255 274 271 296 297 297 298 290 298 292 291 291 298 287 265 261 269 268 275 279 285 267
9 8 7 5 4 5 3 357 351 348 347 347 343 341 341 356 53 326 241 332 331 305 270 132 201 197 257 292 272 286 286 283 288 292 296 291 289 282 281 272 268 271 273 277 270 264 260
2 1 3 4 2 0 1 1 357 350 348 345 342 343 349 247 315 322 311 323 311 267 262 119 152 1 270 270 300 151 264 280 282 294 287 290 290 280 266 279 284 282 286 282 275 264 256
354 353 352 354 355 358 358 359 2 357 350 347 342 341 6 37 352 311 330 320 313 234 45 173 269 270 297 303 280 272 281 280 268 260 274 278 337 285 281 305 288 292 284 275 267 259 249
345 346 349 350 351 350 351 352 355 358 354 348 342 330 255 146 324 315 313 288 244 294 123 46 329 314 310 293 307 301 310 299 303 310 310 314 285 263 272 310 284 268 264 262 251 242 251
341 342 343 344 344 346 348 347 349 352 354 349 344 313 251 241 310 318 308 255 271 345 324 352 318 302 270 352 312 285 293 297 327 310 309 306 309 21 306 288 310 291 262 257 257 258 251
343 344 345 344 342 341 345 347 347 346 350 349 6 356 242 260 305 318 279 271 292 348 355 326 311 306 326 307 315 305 303 306 323 319 305 304 295 311 301 297 295 309 245 251 261 264 273
354 349 347 346 347 346 347 349 350 346 349 349 342 279 198 303 291 299 261 285 294 4 311 310 300 312 320 320 331 317 315 330 307 326 318 306 295 297 285 262 260 235 259 256 248 256 274
346 346 348 349 349 354 354 351 348 347 350 354 355 276 65 334 292 247 273 297 329 338 314 311 321 306 306 320 307 308 305 314 347 331 326 313 291 288 295 260 276 243 233 223 273 277 264
347 346 347 347 351 349 349 352 353 352 350 3 348 275 350 349 266 278 266 1 322 281 272 272 291 301 294 320 309 298 299 321 326 326 309 308 291 287 286 289 217 238 257 236 243 247 255
350 347 348 351 348 343 346 349 352 354 357 347 328 295 344 6 309 327 313 301 253 294 308 301 280 299 300 292 296 287 305 311 310 311 325 341 293 308 290 43 12 337 308 242 290 288 266
349 353 352 348 347 344 345 347 346 349 353 350 324 320 345 353 343 312 330 308 292 232 287 285 282 285 301 295 282 281 292 317 317 308 298 279 271 261 275 293 181 222 253 286 238 253 267
344 346 345 349 349 346 342 341 339 341 359 352 334 3 339 313 328 323 296 295 288 296 288 299 290 269 287 304 311 288 306 313 308 297 283 239 264 274 279 285 293 289 279 258 255 264 272
339 339 343 345 347 345 343 342 340 340 359 350 343 338 331 292 291 284 289 286 310 301 320 301 286 308 307 280 274 286 295 294 300 302 294 294 274 274 283 290 287 281 272 253 257 266 270
339 334 336 338 340 341 341 344 348 349 359 3 334 314 327 294 282 284 284 315 319 327 300 283 298 282 291 296 296 281 280 284 274 254 285 286 280 283 266 313 319 293 266 270 274 261 275
329 334 333 334 338 339 338 345 353 350 355 338 341 330 302 294 327 304 297 297 293 293 281 294 297 284 299 304 300 289 265 249 237 209 202 227 276 259 275 282 248 291 59 342 313 296 285
332 334 333 334 336 337 335 333 337 339 328 332 310 280 288 289 319 293 275 267 300 285 285 284 284 296 310 303 293 291 306 260 243 234 209 216 190 279 270 248 273 289 38 17 345 294 292
333 334 335 334 335 335 335 333 327 319 305 309 293 280 253 294 239 335 312 301 297 302 290 283 321 304 294 293 285 283 309 347 318 300 194 215 161 212 312 296 290 101 43 347 329 271 19
332 332 331 331 331 332 330 329 327 318 303 280 294 281 261 274 281 292 299 312 301 285 278 295 333 314 256 295 282 295 314 353 307 330 299 309 230 230 275 277 246 41 348 330 233 358 326
330 331 330 327 329 330 329 326 323 317 304 297 282 267 260 273 279 279 279 278 266 251 258 312 314 229 276 251 295 346 310 316 309 306 290 287 315 305 306 292 336 350 345 222 319 304 305
327 330 329 327 328 328 327 324 322 316 305 281 287 276 269 261 265 283 282 271 255 249 258 243 278 313 286 315 3 322 300 286 292 278 317 315 326 274 241 288 312 310 302 315 302 286 298